Location: Sungai Laei
(2.6000°N, 113.7167°E)
Time: 14:30:53
(UTC+00:00)

Delta 142 - Pass Details

Date: 22 May 2022
Orbit: 549 x 1587 km, 28.4° (Epoch: 06 July)

Event Time Altitude Azimuth Distance (km) Brightness Sun altitude
Exits shadow 20:49:40 24° 317° (NW) 1,202 4.8 -20.5°
Maximum altitude 20:52:02 58° 29° (NNE) 639 3.8 -20.0°
Drops below altitude 10° 20:56:02 10° 109° (ESE) 1,812 6.6 -19.0°
Sets 20:58:20 0° 113° (ESE) 2,741 7.6 -18.5°
